When you browse on this site, cookies collect data to enhance your experience and personalize the content and advertising you see.
Visit our Privacy Policy to learn more. By continuing to use the site, you agree to this use of cookies and data.
EN

Hourly Weather Lichtenfels

Today, 11 July, Saturday

Time Temperature Precipitation Wind Pressure Humidity
00:00 +14°C° 0 mm 1 mps 738 mmHg 91%
01:00 +13°C° 0 mm 1 mps 738 mmHg 92%
02:00 +13°C° 0 mm 1 mps 738 mmHg 91%
03:00 +13°C° 0 mm 1 mps 738 mmHg 90%
04:00 +13°C° 0 mm 1 mps 738 mmHg 90%
05:00 +14°C° 0 mm 1 mps 739 mmHg 87%
06:00 +14°C° 0 mm 1 mps 739 mmHg 85%
07:00 +15°C° 0 mm 1 mps 740 mmHg 82%
08:00 +16°C° 0.1 mm 1 mps 740 mmHg 76%
09:00 +18°C° 0.1 mm 1 mps 741 mmHg 70%
10:00 +18°C° 0.1 mm 2 mps 741 mmHg 64%
11:00 +19°C° 0.1 mm 2 mps 741 mmHg 59%
12:00 +20°C° 0.1 mm 2 mps 741 mmHg 53%
13:00 +21°C° 0.1 mm 2 mps 741 mmHg 48%
14:00 +20°C° 0 mm 2 mps 741 mmHg 48%
15:00 +20°C° 0 mm 2 mps 741 mmHg 48%
16:00 +20°C° 0 mm 2 mps 741 mmHg 47%
17:00 +20°C° 0 mm 2 mps 741 mmHg 52%
18:00 +19°C° 0 mm 2 mps 741 mmHg 58%
19:00 +19°C° 0 mm 1 mps 741 mmHg 63%
20:00 +16°C° 0 mm 1 mps 741 mmHg 68%
21:00 +14°C° 0 mm 1 mps 742 mmHg 74%
22:00 +12°C° 0 mm 1 mps 742 mmHg 79%
23:00 +12°C° 0 mm 1 mps 742 mmHg 82%

Tomorrow, 12 July, Sunday

Time Temperature Precipitation Wind Pressure Humidity
00:00 +11°C° 0 mm 1 mps 742 mmHg 85%
01:00 +9°C° 0 mm 0 mps 742 mmHg 87%
02:00 +9°C° 0 mm 0 mps 742 mmHg 88%
03:00 +9°C° 0 mm 0 mps 742 mmHg 89%
04:00 +9°C° 0 mm 0 mps 742 mmHg 89%
05:00 +11°C° 0 mm 0 mps 742 mmHg 82%
06:00 +13°C° 0 mm 0 mps 743 mmHg 75%
07:00 +15°C° 0 mm 0 mps 743 mmHg 67%
08:00 +16°C° 0 mm 0 mps 743 mmHg 60%
09:00 +20°C° 0 mm 1 mps 743 mmHg 54%
10:00 +22°C° 0 mm 1 mps 743 mmHg 47%
11:00 +22°C° 0 mm 1 mps 743 mmHg 46%
12:00 +23°C° 0 mm 1 mps 743 mmHg 44%
13:00 +23°C° 0 mm 1 mps 743 mmHg 42%
14:00 +23°C° 0 mm 1 mps 743 mmHg 45%
15:00 +23°C° 0 mm 2 mps 743 mmHg 47%
16:00 +21°C° 0 mm 2 mps 742 mmHg 50%
17:00 +20°C° 0 mm 2 mps 742 mmHg 56%
18:00 +20°C° 0 mm 2 mps 742 mmHg 63%
19:00 +19°C° 0 mm 2 mps 742 mmHg 69%
20:00 +17°C° 0 mm 2 mps 742 mmHg 75%
21:00 +15°C° 0 mm 2 mps 742 mmHg 80%
22:00 +13°C° 0 mm 2 mps 742 mmHg 86%
23:00 +13°C° 0 mm 2 mps 742 mmHg 88%

Day after tomorrow, 13 July, Monday

Time Temperature Precipitation Wind Pressure Humidity
00:00 +12°C° 0 mm 2 mps 742 mmHg 90%
01:00 +12°C° 0 mm 2 mps 742 mmHg 92%
02:00 +11°C° 0 mm 1 mps 742 mmHg 93%
03:00 +11°C° 0 mm 1 mps 742 mmHg 93%
04:00 +11°C° 0 mm 1 mps 742 mmHg 93%
05:00 +12°C° 0 mm 1 mps 742 mmHg 86%
06:00 +14°C° 0 mm 1 mps 742 mmHg 79%
07:00 +16°C° 0 mm 1 mps 742 mmHg 73%
08:00 +19°C° 0 mm 1 mps 742 mmHg 65%
09:00 +21°C° 0 mm 1 mps 742 mmHg 57%
10:00 +23°C° 0 mm 1 mps 742 mmHg 49%
11:00 +24°C° 0 mm 1 mps 741 mmHg 46%
12:00 +25°C° 0 mm 1 mps 741 mmHg 42%
13:00 +26°C° 0 mm 1 mps 741 mmHg 38%
14:00 +26°C° 0 mm 1 mps 740 mmHg 39%
15:00 +25°C° 0 mm 1 mps 740 mmHg 40%
16:00 +25°C° 0 mm 2 mps 739 mmHg 40%
17:00 +24°C° 0 mm 2 mps 739 mmHg 48%
18:00 +23°C° 0 mm 2 mps 739 mmHg 56%
19:00 +20°C° 0 mm 2 mps 739 mmHg 64%
20:00 +19°C° 0 mm 2 mps 739 mmHg 70%
21:00 +17°C° 0 mm 2 mps 739 mmHg 76%
22:00 +15°C° 0 mm 2 mps 738 mmHg 82%
23:00 +14°C° 0 mm 2 mps 738 mmHg 84%

14 July, Tuesday

Time Temperature Precipitation Wind Pressure Humidity
00:00 +14°C° 0 mm 1 mps 738 mmHg 85%
01:00 +13°C° 0 mm 1 mps 738 mmHg 87%
02:00 +13°C° 0 mm 1 mps 738 mmHg 88%
03:00 +12°C° 0 mm 1 mps 738 mmHg 90%
04:00 +12°C° 0 mm 1 mps 737 mmHg 91%
05:00 +14°C° 0 mm 1 mps 737 mmHg 84%
06:00 +15°C° 0 mm 1 mps 737 mmHg 78%
07:00 +18°C° 0 mm 1 mps 737 mmHg 71%
08:00 +20°C° 0 mm 1 mps 737 mmHg 66%
09:00 +22°C° 0 mm 1 mps 737 mmHg 62%
10:00 +23°C° 0 mm 1 mps 737 mmHg 57%
11:00 +24°C° 0.2 mm 2 mps 737 mmHg 54%
12:00 +25°C° 0.2 mm 2 mps 737 mmHg 51%
13:00 +25°C° 0.2 mm 2 mps 736 mmHg 47%
14:00 +25°C° 0.1 mm 2 mps 736 mmHg 48%
15:00 +25°C° 0.1 mm 2 mps 735 mmHg 48%
16:00 +25°C° 0.1 mm 2 mps 735 mmHg 48%
17:00 +24°C° 0 mm 2 mps 735 mmHg 55%
18:00 +23°C° 0 mm 2 mps 735 mmHg 61%
19:00 +22°C° 0 mm 1 mps 735 mmHg 68%
20:00 +21°C° 0 mm 1 mps 735 mmHg 71%
21:00 +19°C° 0 mm 1 mps 735 mmHg 74%
22:00 +18°C° 0 mm 1 mps 735 mmHg 77%
23:00 +16°C° 0 mm 1 mps 734 mmHg 77%

15 July, Wednesday

Time Temperature Precipitation Wind Pressure Humidity
00:00 +16°C° 0 mm 1 mps 734 mmHg 78%
01:00 +16°C° 0 mm 1 mps 734 mmHg 79%
02:00 +15°C° 0 mm 1 mps 734 mmHg 81%
03:00 +15°C° 0 mm 2 mps 734 mmHg 83%
04:00 +15°C° 0 mm 2 mps 733 mmHg 85%
05:00 +15°C° 0.1 mm 2 mps 734 mmHg 86%
06:00 +14°C° 0.1 mm 3 mps 734 mmHg 88%
07:00 +14°C° 0.1 mm 3 mps 734 mmHg 89%
08:00 +14°C° 0.4 mm 3 mps 734 mmHg 91%
09:00 +14°C° 0.4 mm 4 mps 734 mmHg 93%
10:00 +14°C° 0.4 mm 4 mps 734 mmHg 95%
11:00 +14°C° 0.2 mm 4 mps 734 mmHg 93%
12:00 +15°C° 0.2 mm 4 mps 734 mmHg 91%
13:00 +15°C° 0.2 mm 4 mps 734 mmHg 89%
14:00 +16°C° 0.2 mm 5 mps 734 mmHg 82%
15:00 +17°C° 0.2 mm 5 mps 734 mmHg 76%
16:00 +19°C° 0.2 mm 5 mps 734 mmHg 69%
17:00 +19°C° 0.1 mm 5 mps 734 mmHg 73%
18:00 +18°C° 0.1 mm 4 mps 734 mmHg 76%
19:00 +17°C° 0.1 mm 3 mps 734 mmHg 80%
20:00 +16°C° 0.1 mm 3 mps 735 mmHg 83%
21:00 +14°C° 0.1 mm 3 mps 735 mmHg 86%
22:00 +14°C° 0.1 mm 2 mps 736 mmHg 89%
23:00 +14°C° 0.1 mm 2 mps 736 mmHg 91%

16 July, Thursday

Time Temperature Precipitation Wind Pressure Humidity
00:00 +14°C° 0.1 mm 2 mps 736 mmHg 92%
01:00 +14°C° 0.1 mm 2 mps 736 mmHg 93%
02:00 +13°C° 0.1 mm 2 mps 736 mmHg 95%
03:00 +13°C° 0.1 mm 2 mps 737 mmHg 96%
04:00 +12°C° 0.1 mm 2 mps 737 mmHg 97%
05:00 +13°C° 0 mm 2 mps 737 mmHg 95%
06:00 +13°C° 0 mm 3 mps 737 mmHg 92%
07:00 +13°C° 0 mm 3 mps 738 mmHg 90%
08:00 +14°C° 0.1 mm 3 mps 738 mmHg 86%
09:00 +16°C° 0.1 mm 3 mps 738 mmHg 81%
10:00 +15°C° 0.1 mm 4 mps 738 mmHg 76%
11:00 +18°C° 0 mm 4 mps 738 mmHg 70%
12:00 +19°C° 0 mm 4 mps 738 mmHg 63%
13:00 +20°C° 0 mm 4 mps 738 mmHg 56%
14:00 +21°C° 0.1 mm 4 mps 738 mmHg 55%
15:00 +21°C° 0.1 mm 4 mps 738 mmHg 55%
16:00 +21°C° 0.1 mm 4 mps 738 mmHg 54%
17:00 +21°C° 0 mm 3 mps 738 mmHg 60%
18:00 +20°C° 0 mm 2 mps 738 mmHg 66%
19:00 +19°C° 0 mm 2 mps 737 mmHg 71%
20:00 +18°C° 0 mm 2 mps 738 mmHg 73%
21:00 +17°C° 0 mm 2 mps 738 mmHg 74%
22:00 +17°C° 0 mm 2 mps 738 mmHg 75%
23:00 +16°C° 0 mm 1 mps 738 mmHg 79%
Show more